Time,TemperatureF,DewpointF,PressureIn,WindDirection,WindDirectionDegrees,WindSpeedMPH,WindSpeedGustMPH,Humidity,HourlyPrecipIn,Conditions,Clouds,dailyrainin,SoftwareType,DateUTC
2013-07-01 00:01:00,66.0,65.0,29.81,WNW,292,0.0,-999.0,96,-99.99,,,-99.99,,2013-07-01 04:01:00,
2013-07-01 00:11:00,66.0,65.0,29.81,WNW,292,0.0,-999.0,96,-99.99,,,-99.99,,2013-07-01 04:11:00,
2013-07-01 00:22:00,66.0,65.0,29.81,WNW,292,0.0,-999.0,96,-99.99,,,-99.99,,2013-07-01 04:22:00,
2013-07-01 00:32:00,66.0,65.0,29.81,WNW,292,0.0,-999.0,96,-99.99,,,-99.99,,2013-07-01 04:32:00,
2013-07-01 00:43:00,66.0,65.0,29.81,WNW,292,0.0,-999.0,96,-99.99,,,-99.99,,2013-07-01 04:43:00,
2013-07-01 00:53:00,67.0,66.0,29.82,WNW,292,0.0,-999.0,96,-99.99,,,-99.99,,2013-07-01 04:53:00,
2013-07-01 01:02:00,66.0,65.0,29.82,WNW,292,0.0,-999.0,96,-99.99,,,-99.99,,2013-07-01 05:02:00,
2013-07-01 01:11:00,66.0,65.0,29.82,WNW,292,0.0,-999.0,97,-99.99,,,-99.99,,2013-07-01 05:11:00,
2013-07-01 01:22:00,66.0,65.0,29.82,WNW,292,0.0,-999.0,97,-99.99,,,-99.99,,2013-07-01 05:22:00,
2013-07-01 01:33:00,66.0,65.0,29.83,SSW,213,0.0,-999.0,97,-99.99,,,-99.99,,2013-07-01 05:33:00,
2013-07-01 01:42:00,65.0,64.0,29.82,WNW,293,0.0,-999.0,96,-99.99,,,-99.99,,2013-07-01 05:42:00,
2013-07-01 01:52:00,65.0,64.0,29.82,WNW,293,0.0,-999.0,96,-99.99,,,-99.99,,2013-07-01 05:52:00,
2013-07-01 02:02:00,65.0,64.0,29.82,NW,309,0.0,-999.0,96,-99.99,,,-99.99,,2013-07-01 06:02:00,
2013-07-01 02:12:00,64.0,63.0,29.82,NW,308,0.0,-999.0,95,-99.99,,,-99.99,,2013-07-01 06:12:00,
2013-07-01 02:24:00,64.0,63.0,29.82,NW,308,0.0,-999.0,95,-99.99,,,-99.99,,2013-07-01 06:24:00,
2013-07-01 02:33:00,64.0,62.0,29.82,NW,305,0.0,-999.0,94,-99.99,,,-99.99,,2013-07-01 06:33:00,
2013-07-01 02:43:00,64.0,62.0,29.81,NW,305,0.0,-999.0,94,-99.99,,,-99.99,,2013-07-01 06:43:00,
2013-07-01 02:53:00,64.0,62.0,29.81,NW,305,0.0,-999.0,94,-99.99,,,-99.99,,2013-07-01 06:53:00,
2013-07-01 03:01:00,64.0,63.0,29.81,NW,305,0.0,-999.0,95,-99.99,,,-99.99,,2013-07-01 07:01:00,
2013-07-01 03:11:00,64.0,63.0,29.81,WNW,286,0.0,-999.0,96,-99.99,,,-99.99,,2013-07-01 07:11:00,
2013-07-01 03:22:00,64.0,63.0,29.81,WNW,286,0.0,-999.0,96,-99.99,,,-99.99,,2013-07-01 07:22:00,
2013-07-01 03:33:00,64.0,63.0,29.81,WNW,286,0.0,-999.0,96,-99.99,,,-99.99,,2013-07-01 07:33:00,
2013-07-01 03:43:00,64.0,63.0,29.81,WNW,286,0.0,-999.0,96,-99.99,,,-99.99,,2013-07-01 07:43:00,
2013-07-01 03:53:00,64.0,63.0,29.81,WNW,286,0.0,-999.0,96,-99.99,,,-99.99,,2013-07-01 07:53:00,
2013-07-01 04:01:00,64.0,63.0,29.80,WNW,286,0.0,-999.0,96,-99.99,,,-99.99,,2013-07-01 08:01:00,
2013-07-01 04:11:00,64.0,63.0,29.81,WNW,286,0.0,-999.0,96,-99.99,,,-99.99,,2013-07-01 08:11:00,
2013-07-01 04:22:00,64.0,63.0,29.81,WNW,286,0.0,-999.0,96,-99.99,,,-99.99,,2013-07-01 08:22:00,
2013-07-01 04:33:00,64.0,63.0,29.81,WNW,286,0.0,-999.0,96,-99.99,,,-99.99,,2013-07-01 08:33:00,
2013-07-01 04:42:00,64.0,63.0,29.81,WNW,286,0.0,-999.0,96,-99.99,,,-99.99,,2013-07-01 08:42:00,
2013-07-01 04:52:00,64.0,63.0,29.81,WNW,286,0.0,-999.0,96,-99.99,,,-99.99,,2013-07-01 08:52:00,
2013-07-01 05:02:00,64.0,63.0,29.82,WNW,286,0.0,-999.0,96,-99.99,,,-99.99,,2013-07-01 09:02:00,
2013-07-01 05:12:00,64.0,63.0,29.83,WNW,286,0.0,-999.0,96,-99.99,,,-99.99,,2013-07-01 09:12:00,
2013-07-01 05:22:00,64.0,63.0,29.83,WNW,286,0.0,-999.0,96,-99.99,,,-99.99,,2013-07-01 09:22:00,
2013-07-01 05:34:00,64.0,63.0,29.82,WNW,286,0.0,-999.0,96,-99.99,,,-99.99,,2013-07-01 09:34:00,
2013-07-01 05:43:00,64.0,63.0,29.83,WNW,286,0.0,-999.0,96,-99.99,,,-99.99,,2013-07-01 09:43:00,
2013-07-01 05:53:00,64.0,63.0,29.83,WNW,286,0.0,-999.0,96,-99.99,,,-99.99,,2013-07-01 09:53:00,
2013-07-01 06:03:00,64.0,63.0,29.83,WNW,286,0.0,-999.0,97,-99.99,,,-99.99,,2013-07-01 10:03:00,
2013-07-01 06:11:00,64.0,63.0,29.83,WNW,286,0.0,-999.0,97,-99.99,,,-99.99,,2013-07-01 10:11:00,
2013-07-01 06:22:00,64.0,63.0,29.83,WNW,286,0.0,-999.0,97,-99.99,,,-99.99,,2013-07-01 10:22:00,
2013-07-01 06:33:00,64.0,63.0,29.84,WNW,286,0.0,-999.0,97,-99.99,,,-99.99,,2013-07-01 10:33:00,
2013-07-01 06:42:00,64.0,63.0,29.85,WNW,286,0.0,-999.0,97,-99.99,,,-99.99,,2013-07-01 10:42:00,
2013-07-01 06:52:00,64.0,63.0,29.85,WNW,286,0.0,-999.0,97,-99.99,,,-99.99,,2013-07-01 10:52:00,
2013-07-01 07:02:00,64.0,63.0,29.84,WNW,286,0.0,-999.0,97,-99.99,,,-99.99,,2013-07-01 11:02:00,
2013-07-01 07:11:00,64.0,63.0,29.84,WNW,286,0.0,-999.0,97,-99.99,,,-99.99,,2013-07-01 11:11:00,
2013-07-01 07:22:00,64.0,63.0,29.84,WNW,286,0.0,-999.0,97,-99.99,,,-99.99,,2013-07-01 11:22:00,
2013-07-01 07:33:00,64.0,63.0,29.85,WNW,286,0.0,-999.0,97,-99.99,,,-99.99,,2013-07-01 11:33:00,
2013-07-01 07:43:00,65.0,64.0,29.86,WNW,286,0.0,-999.0,97,-99.99,,,-99.99,,2013-07-01 11:43:00,
2013-07-01 07:52:00,65.0,64.0,29.86,WNW,286,0.0,-999.0,97,-99.99,,,-99.99,,2013-07-01 11:52:00,
2013-07-01 08:01:00,65.0,64.0,29.87,WNW,286,0.0,-999.0,97,-99.99,,,-99.99,,2013-07-01 12:01:00,
2013-07-01 08:11:00,65.0,64.0,29.87,WNW,286,0.0,-999.0,97,-99.99,,,-99.99,,2013-07-01 12:11:00,
2013-07-01 08:22:00,65.0,64.0,29.87,WNW,286,0.0,-999.0,97,-99.99,,,-99.99,,2013-07-01 12:22:00,
2013-07-01 08:33:00,66.0,65.0,29.87,WNW,286,0.0,-999.0,97,-99.99,,,-99.99,,2013-07-01 12:33:00,
2013-07-01 08:43:00,66.0,65.0,29.87,WNW,286,0.0,-999.0,97,-99.99,,,-99.99,,2013-07-01 12:43:00,
2013-07-01 08:53:00,66.0,65.0,29.87,WNW,286,0.0,-999.0,97,-99.99,,,-99.99,,2013-07-01 12:53:00,
2013-07-01 09:02:00,66.0,65.0,29.87,WNW,286,0.0,-999.0,97,-99.99,,,-99.99,,2013-07-01 13:02:00,
2013-07-01 09:12:00,66.0,65.0,29.88,WNW,286,0.0,-999.0,97,-99.99,,,-99.99,,2013-07-01 13:12:00,
2013-07-01 09:23:00,66.0,65.0,29.88,WNW,286,0.0,-999.0,97,-99.99,,,-99.99,,2013-07-01 13:23:00,
2013-07-01 09:33:00,66.0,65.0,29.88,WNW,286,0.0,-999.0,97,-99.99,,,-99.99,,2013-07-01 13:33:00,
2013-07-01 09:53:00,65.0,64.0,29.88,WNW,286,0.0,-999.0,97,-99.99,,,-99.99,,2013-07-01 13:53:00,
2013-07-01 10:01:00,66.0,65.0,29.88,WNW,286,0.0,-999.0,97,-99.99,,,-99.99,,2013-07-01 14:01:00,
2013-07-01 10:22:00,66.0,65.0,29.88,WNW,286,0.0,-999.0,97,-99.99,,,-99.99,,2013-07-01 14:22:00,
2013-07-01 10:34:00,67.0,66.0,29.88,WNW,286,0.0,-999.0,97,-99.99,,,-99.99,,2013-07-01 14:34:00,
2013-07-01 10:43:00,67.0,66.0,29.89,WSW,246,0.0,-999.0,96,-99.99,,,-99.99,,2013-07-01 14:43:00,
2013-07-01 10:52:00,67.0,66.0,29.89,WSW,246,0.0,-999.0,96,-99.99,,,-99.99,,2013-07-01 14:52:00,
2013-07-01 11:23:00,67.0,66.0,29.90,WSW,241,0.0,-999.0,96,-99.99,,,-99.99,,2013-07-01 15:23:00,
2013-07-01 11:34:00,67.0,66.0,29.90,WSW,241,0.0,-999.0,96,-99.99,,,-99.99,,2013-07-01 15:34:00,
2013-07-01 11:43:00,67.0,66.0,29.91,WSW,240,0.0,-999.0,97,-99.99,,,-99.99,,2013-07-01 15:43:00,
2013-07-01 11:52:00,67.0,66.0,29.91,WSW,240,0.0,-999.0,97,-99.99,,,-99.99,,2013-07-01 15:52:00,
2013-07-01 12:22:00,70.0,68.0,29.89,SSE,168,0.0,-999.0,93,-99.99,,,-99.99,,2013-07-01 16:22:00,
2013-07-01 12:33:00,71.0,68.0,29.89,SSW,200,0.0,-999.0,91,-99.99,,,-99.99,,2013-07-01 16:33:00,
2013-07-01 12:53:00,71.0,68.0,29.89,South,190,0.0,-999.0,90,-99.99,,,-99.99,,2013-07-01 16:53:00,
2013-07-01 13:23:00,71.0,68.0,29.88,South,190,0.0,-999.0,90,-99.99,,,-99.99,,2013-07-01 17:23:00,
2013-07-01 13:34:00,73.0,68.0,29.88,SSW,205,0.0,-999.0,85,-99.99,,,-99.99,,2013-07-01 17:34:00,
2013-07-01 13:53:00,73.0,68.0,29.88,SSW,201,0.0,-999.0,84,-99.99,,,-99.99,,2013-07-01 17:53:00,
2013-07-01 14:11:00,74.0,68.0,29.88,SSW,202,0.0,-999.0,83,-99.99,,,-99.99,,2013-07-01 18:11:00,
2013-07-01 14:22:00,75.0,70.0,29.88,SSW,206,0.0,-999.0,84,-99.99,,,-99.99,,2013-07-01 18:22:00,
2013-07-01 14:33:00,76.0,71.0,29.87,SSW,200,0.0,-999.0,85,-99.99,,,-99.99,,2013-07-01 18:33:00,
2013-07-01 14:43:00,76.0,71.0,29.87,SSW,200,0.0,-999.0,85,-99.99,,,-99.99,,2013-07-01 18:43:00,
2013-07-01 14:53:00,77.0,70.0,29.86,South,179,0.0,-999.0,78,-99.99,,,-99.99,,2013-07-01 18:53:00,
2013-07-01 15:02:00,78.0,71.0,29.86,South,176,0.0,-999.0,78,-99.99,,,-99.99,,2013-07-01 19:02:00,
2013-07-01 15:22:00,78.0,71.0,29.86,South,175,0.0,-999.0,80,-99.99,,,-99.99,,2013-07-01 19:22:00,
2013-07-01 15:33:00,77.0,69.0,29.86,South,185,0.0,-999.0,77,-99.99,,,-99.99,,2013-07-01 19:33:00,
2013-07-01 15:44:00,77.0,69.0,29.87,SSW,200,0.0,-999.0,76,-99.99,,,-99.99,,2013-07-01 19:44:00,
2013-07-01 15:52:00,77.0,69.0,29.87,SSW,200,0.0,-999.0,76,-99.99,,,-99.99,,2013-07-01 19:52:00,
2013-07-01 16:11:00,76.0,70.0,29.87,SSE,153,0.0,-999.0,81,-99.99,,,-99.99,,2013-07-01 20:11:00,
2013-07-01 16:22:00,76.0,70.0,29.87,SSW,198,0.0,-999.0,82,-99.99,,,-99.99,,2013-07-01 20:22:00,
2013-07-01 16:43:00,75.0,69.0,29.87,South,181,0.0,-999.0,82,-99.99,,,-99.99,,2013-07-01 20:43:00,
2013-07-01 16:52:00,75.0,69.0,29.87,South,181,0.0,-999.0,82,-99.99,,,-99.99,,2013-07-01 20:52:00,
2013-07-01 17:24:00,76.0,71.0,29.87,SSE,149,0.0,-999.0,84,-99.99,,,-99.99,,2013-07-01 21:24:00,
2013-07-01 17:34:00,76.0,69.0,29.87,SW,229,0.0,-999.0,80,-99.99,,,-99.99,,2013-07-01 21:34:00,
2013-07-01 17:43:00,75.0,69.0,29.87,South,190,0.0,-999.0,83,-99.99,,,-99.99,,2013-07-01 21:43:00,
2013-07-01 17:53:00,75.0,69.0,29.87,South,190,0.0,-999.0,83,-99.99,,,-99.99,,2013-07-01 21:53:00,
2013-07-01 18:01:00,75.0,71.0,29.86,South,181,0.0,-999.0,86,-99.99,,,-99.99,,2013-07-01 22:01:00,
2013-07-01 18:11:00,75.0,71.0,29.86,South,181,0.0,-999.0,86,-99.99,,,-99.99,,2013-07-01 22:11:00,
2013-07-01 18:24:00,75.0,70.0,29.86,SSE,166,0.0,-999.0,85,-99.99,,,-99.99,,2013-07-01 22:24:00,
2013-07-01 18:43:00,74.0,70.0,29.88,South,175,0.0,-999.0,86,-99.99,,,-99.99,,2013-07-01 22:43:00,
2013-07-01 18:53:00,74.0,70.0,29.88,South,175,0.0,-999.0,86,-99.99,,,-99.99,,2013-07-01 22:53:00,
2013-07-01 19:01:00,74.0,70.0,29.88,SSW,192,0.0,-999.0,88,-99.99,,,-99.99,,2013-07-01 23:01:00,
2013-07-01 19:11:00,73.0,70.0,29.88,SW,215,0.0,-999.0,89,-99.99,,,-99.99,,2013-07-01 23:11:00,
2013-07-01 19:22:00,73.0,70.0,29.88,SW,215,0.0,-999.0,89,-99.99,,,-99.99,,2013-07-01 23:22:00,
2013-07-01 19:33:00,73.0,70.0,29.89,SSW,197,0.0,-999.0,89,-99.99,,,-99.99,,2013-07-01 23:33:00,
2013-07-01 19:44:00,73.0,70.0,29.90,SSW,198,0.0,-999.0,90,-99.99,,,-99.99,,2013-07-01 23:44:00,
2013-07-01 19:53:00,73.0,70.0,29.90,SSW,198,0.0,-999.0,90,-99.99,,,-99.99,,2013-07-01 23:53:00,
2013-07-01 20:01:00,73.0,70.0,29.90,SSW,194,0.0,-999.0,89,-99.99,,,-99.99,,2013-07-02 00:01:00,
2013-07-01 20:12:00,72.0,69.0,29.90,SSW,194,0.0,-999.0,89,-99.99,,,-99.99,,2013-07-02 00:12:00,
2013-07-01 20:22:00,72.0,69.0,29.90,SSW,194,0.0,-999.0,89,-99.99,,,-99.99,,2013-07-02 00:22:00,
2013-07-01 20:34:00,72.0,69.0,29.89,SSW,194,0.0,-999.0,90,-99.99,,,-99.99,,2013-07-02 00:34:00,
2013-07-01 20:43:00,72.0,69.0,29.89,SSW,194,0.0,-999.0,90,-99.99,,,-99.99,,2013-07-02 00:43:00,
2013-07-01 20:53:00,72.0,69.0,29.89,SSW,194,0.0,-999.0,90,-99.99,,,-99.99,,2013-07-02 00:53:00,
2013-07-01 21:01:00,72.0,69.0,29.90,South,179,0.0,-999.0,90,-99.99,,,-99.99,,2013-07-02 01:01:00,
2013-07-01 21:11:00,72.0,69.0,29.90,South,179,0.0,-999.0,90,-99.99,,,-99.99,,2013-07-02 01:11:00,
2013-07-01 21:22:00,72.0,69.0,29.92,SSW,192,0.0,-999.0,91,-99.99,,,-99.99,,2013-07-02 01:22:00,
2013-07-01 21:33:00,72.0,69.0,29.92,SSW,192,0.0,-999.0,91,-99.99,,,-99.99,,2013-07-02 01:33:00,
2013-07-01 21:53:00,71.0,68.0,29.92,SSW,192,0.0,-999.0,91,-99.99,,,-99.99,,2013-07-02 01:53:00,
2013-07-01 22:22:00,71.0,69.0,29.93,SSW,192,0.0,-999.0,92,-99.99,,,-99.99,,2013-07-02 02:22:00,
2013-07-01 22:34:00,71.0,69.0,29.93,SSW,192,0.0,-999.0,93,-99.99,,,-99.99,,2013-07-02 02:34:00,
2013-07-01 22:53:00,71.0,69.0,29.93,SW,219,0.0,-999.0,93,-99.99,,,-99.99,,2013-07-02 02:53:00,
2013-07-01 23:12:00,70.0,68.0,29.94,SSW,197,0.0,-999.0,94,-99.99,,,-99.99,,2013-07-02 03:12:00,
2013-07-01 23:24:00,70.0,68.0,29.95,South,174,0.0,-999.0,94,-99.99,,,-99.99,,2013-07-02 03:24:00,
2013-07-01 23:43:00,70.0,68.0,29.96,South,187,0.0,-999.0,94,-99.99,,,-99.99,,2013-07-02 03:43:00,
2013-07-01 23:53:00,70.0,68.0,29.95,SSW,193,0.0,-999.0,94,-99.99,,,-99.99,,2013-07-02 03:53:00,